LNK271 KDEN-KMFR

Flight info

Callsign LNK271
Flight time 2h 59m
Altitude 34000
Route ZIMMR4 CHNGY WAATS Q124 BVL LOKEY OED
Aircraft C550/L-SDFGHRWY/S

Departure

Time 2026-04-20 20:34
Airport Denver International Airport (KDEN)

Arrival

Time 2026-04-20 23:34
Airport Rogue Valley International-Medford Airport (KMFR)
Time Latitude Longitude Altitude Speed Heading
2026-04-20 20:05 39.88052 -104.67843 5434 ft 0 kts 180°
2026-04-20 20:18 39.88051 -104.67843 5435 ft 0 kts 180°
2026-04-20 20:20 39.88046 -104.67858 5434 ft 5 kts 300°
2026-04-20 20:20 39.88074 -104.67919 5434 ft 9 kts 300°
2026-04-20 20:20 39.88097 -104.68001 5434 ft 10 kts 281°
2026-04-20 20:21 39.88100 -104.68074 5434 ft 6 kts 271°
2026-04-20 20:21 39.88101 -104.68123 5434 ft 6 kts 270°
2026-04-20 20:21 39.88100 -104.68216 5434 ft 16 kts 270°
2026-04-20 20:21 39.88093 -104.68377 5434 ft 20 kts 261°
2026-04-20 20:22 39.88044 -104.68485 5434 ft 13 kts 191°
2026-04-20 20:22 39.87955 -104.68490 5434 ft 13 kts 181°
2026-04-20 20:22 39.87870 -104.68490 5434 ft 12 kts 180°
2026-04-20 20:22 39.87791 -104.68490 5434 ft 11 kts 180°
2026-04-20 20:23 39.87715 -104.68490 5434 ft 11 kts 180°
2026-04-20 20:23 39.87643 -104.68491 5434 ft 10 kts 180°
2026-04-20 20:23 39.87574 -104.68492 5434 ft 10 kts 180°
2026-04-20 20:23 39.87507 -104.68493 5434 ft 10 kts 180°
2026-04-20 20:24 39.87428 -104.68494 5434 ft 14 kts 180°
2026-04-20 20:24 39.87323 -104.68497 5434 ft 16 kts 180°
2026-04-20 20:24 39.87215 -104.68498 5434 ft 15 kts 181°
2026-04-20 20:24 39.87114 -104.68500 5434 ft 14 kts 180°
2026-04-20 20:25 39.87020 -104.68500 5434 ft 13 kts 181°
2026-04-20 20:25 39.86926 -104.68503 5434 ft 14 kts 181°
2026-04-20 20:25 39.86816 -104.68503 5434 ft 17 kts 180°
2026-04-20 20:25 39.86698 -104.68504 5434 ft 17 kts 181°
2026-04-20 20:26 39.86599 -104.68504 5434 ft 12 kts 180°
2026-04-20 20:26 39.86518 -104.68505 5434 ft 12 kts 181°
2026-04-20 20:26 39.86429 -104.68506 5434 ft 15 kts 181°
2026-04-20 20:26 39.86317 -104.68509 5434 ft 17 kts 180°
2026-04-20 20:27 39.86204 -104.68510 5434 ft 15 kts 180°
2026-04-20 20:27 39.86104 -104.68511 5434 ft 15 kts 180°
2026-04-20 20:27 39.85993 -104.68512 5434 ft 17 kts 180°
2026-04-20 20:27 39.85867 -104.68514 5434 ft 19 kts 180°
2026-04-20 20:28 39.85727 -104.68516 5435 ft 21 kts 180°
2026-04-20 20:28 39.85590 -104.68516 5434 ft 18 kts 180°
2026-04-20 20:28 39.85483 -104.68517 5434 ft 13 kts 180°
2026-04-20 20:28 39.85413 -104.68518 5434 ft 8 kts 180°
2026-04-20 20:29 39.85352 -104.68518 5434 ft 10 kts 180°
2026-04-20 20:29 39.85275 -104.68519 5434 ft 11 kts 180°
2026-04-20 20:29 39.85209 -104.68567 5434 ft 12 kts 258°
2026-04-20 20:29 39.85207 -104.68697 5434 ft 17 kts 270°
2026-04-20 20:30 39.85203 -104.68862 5434 ft 19 kts 267°
2026-04-20 20:30 39.85200 -104.69008 5434 ft 14 kts 268°
2026-04-20 20:30 39.85198 -104.69133 5434 ft 15 kts 270°
2026-04-20 20:30 39.85201 -104.69289 5434 ft 18 kts 271°
2026-04-20 20:31 39.85204 -104.69441 5434 ft 15 kts 266°
2026-04-20 20:31 39.85204 -104.69508 5434 ft 0 kts 272°
2026-04-20 20:32 39.85204 -104.69520 5434 ft 4 kts 272°
2026-04-20 20:33 39.85206 -104.69587 5434 ft 11 kts 272°
2026-04-20 20:33 39.85259 -104.69662 5434 ft 16 kts 360°
2026-04-20 20:33 39.85415 -104.69657 5435 ft 38 kts
2026-04-20 20:33 39.85846 -104.69650 5435 ft 84 kts
2026-04-20 20:34 39.86562 -104.69648 5435 ft 124 kts
2026-04-20 20:34 39.87538 -104.69629 5512 ft 152 kts
2026-04-20 20:34 39.88636 -104.69616 5954 ft 157 kts 360°
2026-04-20 20:34 39.89705 -104.69399 6434 ft 163 kts 32°
2026-04-20 20:35 39.90585 -104.68446 6896 ft 169 kts 41°
2026-04-20 20:35 39.91622 -104.67613 7283 ft 183 kts 21°
2026-04-20 20:35 39.92905 -104.67498 7679 ft 194 kts 339°
2026-04-20 20:35 39.93952 -104.68605 8046 ft 203 kts 296°
2026-04-20 20:36 39.94205 -104.70432 8415 ft 213 kts 264°
2026-04-20 20:36 39.93980 -104.72404 8771 ft 228 kts 259°
2026-04-20 20:36 39.93708 -104.74498 9111 ft 240 kts 261°
2026-04-20 20:36 39.93500 -104.76675 9517 ft 243 kts 263°
2026-04-20 20:37 39.93365 -104.78871 9966 ft 243 kts 265°
2026-04-20 20:37 39.93288 -104.81068 10417 ft 242 kts 266°
2026-04-20 20:37 39.93248 -104.83253 10870 ft 241 kts 267°
2026-04-20 20:37 39.93226 -104.85430 11318 ft 240 kts 268°
2026-04-20 20:38 39.93216 -104.87593 11767 ft 238 kts 268°
2026-04-20 20:38 39.93231 -104.89720 12165 ft 238 kts 268°
2026-04-20 20:38 39.93262 -104.91883 12517 ft 240 kts 268°
2026-04-20 20:38 39.93302 -104.94068 12827 ft 243 kts 269°
2026-04-20 20:39 39.93348 -104.96283 13128 ft 245 kts 269°
2026-04-20 20:39 39.93399 -104.98511 13433 ft 248 kts 269°
2026-04-20 20:39 39.93449 -105.00764 13735 ft 249 kts 269°
2026-04-20 20:39 39.93503 -105.03031 14042 ft 252 kts 269°
2026-04-20 20:40 39.93556 -105.05320 14341 ft 253 kts 269°
2026-04-20 20:40 39.93610 -105.07613 14643 ft 254 kts 269°
2026-04-20 20:40 39.93662 -105.09919 14948 ft 254 kts 269°
2026-04-20 20:40 39.93716 -105.12227 15248 ft 255 kts 269°
2026-04-20 20:41 39.93768 -105.14538 15544 ft 255 kts 269°
2026-04-20 20:41 39.93818 -105.16810 15838 ft 254 kts 269°
2026-04-20 20:41 39.93872 -105.19103 16144 ft 254 kts 269°
2026-04-20 20:41 39.93970 -105.21398 16446 ft 254 kts 271°
2026-04-20 20:42 39.94102 -105.23691 16741 ft 253 kts 271°
2026-04-20 20:42 39.94255 -105.25965 17040 ft 251 kts 272°
2026-04-20 20:42 39.94418 -105.28226 17340 ft 249 kts 272°
2026-04-20 20:42 39.94585 -105.30467 17638 ft 248 kts 272°
2026-04-20 20:43 39.94754 -105.32673 17934 ft 246 kts 272°
2026-04-20 20:43 39.94929 -105.34900 18236 ft 244 kts 272°
2026-04-20 20:43 39.95103 -105.37093 18540 ft 243 kts 272°
2026-04-20 20:43 39.95274 -105.39282 18839 ft 242 kts 272°
2026-04-20 20:44 39.95445 -105.41460 19132 ft 240 kts 272°
2026-04-20 20:44 39.95617 -105.43618 19429 ft 238 kts 272°
2026-04-20 20:44 39.95786 -105.45757 19727 ft 236 kts 272°
2026-04-20 20:44 39.95949 -105.47852 20020 ft 233 kts 271°
2026-04-20 20:45 39.96115 -105.49972 20320 ft 231 kts 271°
2026-04-20 20:45 39.96274 -105.52008 20612 ft 228 kts 271°
2026-04-20 20:45 39.96431 -105.54052 20911 ft 225 kts 271°
2026-04-20 20:45 39.96586 -105.56068 21206 ft 222 kts 271°
2026-04-20 20:46 39.96740 -105.58059 21502 ft 219 kts 270°
2026-04-20 20:46 39.96890 -105.60021 21798 ft 216 kts 270°
2026-04-20 20:46 39.97037 -105.61953 22091 ft 212 kts 270°
2026-04-20 20:46 39.97179 -105.63854 22353 ft 210 kts 269°
2026-04-20 20:47 39.97301 -105.65747 22604 ft 210 kts 269°
2026-04-20 20:47 39.97410 -105.67641 22854 ft 210 kts 268°
2026-04-20 20:47 39.97513 -105.69534 23104 ft 209 kts 268°
2026-04-20 20:47 39.97614 -105.71422 23353 ft 208 kts 268°
2026-04-20 20:48 39.97711 -105.73275 23598 ft 207 kts 267°
2026-04-20 20:48 39.97807 -105.75142 23847 ft 206 kts 267°
2026-04-20 20:48 39.97902 -105.77000 24069 ft 206 kts 267°
2026-04-20 20:48 39.97996 -105.78866 24249 ft 207 kts 267°
2026-04-20 20:49 39.98090 -105.80756 24391 ft 210 kts 267°
2026-04-20 20:49 39.98184 -105.82676 24523 ft 214 kts 267°
2026-04-20 20:49 39.98280 -105.84627 24653 ft 217 kts 267°
2026-04-20 20:49 39.98378 -105.86608 24781 ft 220 kts 267°
2026-04-20 20:50 39.98477 -105.88615 24909 ft 223 kts 267°
2026-04-20 20:50 39.98577 -105.90648 25037 ft 226 kts 267°
2026-04-20 20:50 39.98678 -105.92707 25165 ft 228 kts 267°
2026-04-20 20:50 39.98780 -105.94780 25293 ft 230 kts 267°
2026-04-20 20:51 39.98882 -105.96871 25420 ft 232 kts 267°
2026-04-20 20:51 39.98985 -105.98983 25546 ft 234 kts 267°
2026-04-20 20:51 39.99089 -106.01112 25673 ft 236 kts 267°
2026-04-20 20:51 39.99193 -106.03254 25800 ft 237 kts 267°
2026-04-20 20:52 39.99296 -106.05408 25926 ft 239 kts 267°
2026-04-20 20:52 39.99399 -106.07553 26051 ft 240 kts 267°
2026-04-20 20:52 39.99504 -106.09729 26177 ft 241 kts 267°
2026-04-20 20:52 39.99608 -106.11920 26303 ft 242 kts 267°
2026-04-20 20:53 39.99712 -106.14115 26428 ft 243 kts 266°
2026-04-20 20:53 39.99816 -106.16314 26554 ft 243 kts 266°
2026-04-20 20:53 39.99920 -106.18518 26680 ft 244 kts 266°
2026-04-20 20:53 40.00024 -106.20731 26805 ft 244 kts 266°
2026-04-20 20:54 40.00127 -106.22947 26931 ft 245 kts 266°
2026-04-20 20:54 40.00230 -106.25163 27056 ft 245 kts 266°
2026-04-20 20:54 40.00331 -106.27349 27179 ft 245 kts 266°
2026-04-20 20:54 40.00433 -106.29562 27325 ft 244 kts 266°
2026-04-20 20:55 40.00535 -106.31769 27493 ft 242 kts 266°
2026-04-20 20:55 40.00636 -106.33949 27664 ft 240 kts 266°
2026-04-20 20:55 40.00735 -106.36117 27837 ft 238 kts 266°
2026-04-20 20:55 40.00833 -106.38260 28003 ft 236 kts 265°
2026-04-20 20:56 40.00928 -106.40392 28138 ft 235 kts 265°
2026-04-20 20:56 40.01022 -106.42519 28242 ft 235 kts 265°
2026-04-20 20:56 40.01142 -106.44661 28325 ft 238 kts 268°
2026-04-20 20:56 40.01356 -106.46818 28403 ft 241 kts 270°
2026-04-20 20:57 40.01617 -106.48989 28480 ft 243 kts 271°
2026-04-20 20:57 40.01901 -106.51164 28556 ft 244 kts 271°
2026-04-20 20:57 40.02197 -106.53353 28632 ft 246 kts 271°
2026-04-20 20:57 40.02500 -106.55549 28708 ft 247 kts 271°
2026-04-20 20:58 40.02808 -106.57761 28785 ft 248 kts 271°
2026-04-20 20:58 40.03120 -106.59982 28871 ft 249 kts 271°
2026-04-20 20:58 40.03435 -106.62205 28986 ft 249 kts 272°
2026-04-20 20:58 40.03750 -106.64424 29109 ft 248 kts 271°
2026-04-20 20:59 40.04064 -106.66631 29233 ft 247 kts 271°
2026-04-20 20:59 40.04373 -106.68806 29356 ft 246 kts 271°
2026-04-20 20:59 40.04689 -106.71027 29481 ft 245 kts 271°
2026-04-20 20:59 40.04995 -106.73179 29602 ft 244 kts 271°
2026-04-20 21:00 40.05303 -106.75352 29726 ft 243 kts 271°
2026-04-20 21:00 40.05609 -106.77512 29850 ft 241 kts 271°
2026-04-20 21:00 40.05913 -106.79658 29974 ft 239 kts 270°
2026-04-20 21:00 40.06214 -106.81789 30097 ft 237 kts 270°
2026-04-20 21:01 40.06512 -106.83901 30220 ft 236 kts 270°
2026-04-20 21:01 40.06708 -106.85290 30302 ft 234 kts 270°
2026-04-20 21:01 40.07000 -106.87370 30424 ft 232 kts 270°
2026-04-20 21:01 40.07291 -106.89441 30547 ft 230 kts 270°
2026-04-20 21:02 40.07579 -106.91494 30670 ft 228 kts 270°
2026-04-20 21:02 40.07864 -106.93525 30793 ft 226 kts 269°
2026-04-20 21:02 40.08146 -106.95540 30915 ft 224 kts 269°
2026-04-20 21:02 40.08424 -106.97532 31037 ft 222 kts 269°
2026-04-20 21:03 40.08699 -106.99503 31159 ft 220 kts 269°
2026-04-20 21:03 40.08969 -107.01437 31280 ft 217 kts 269°
2026-04-20 21:03 40.09238 -107.03371 31402 ft 215 kts 269°
2026-04-20 21:03 40.09504 -107.05281 31523 ft 213 kts 268°
2026-04-20 21:04 40.09766 -107.07169 31644 ft 210 kts 268°
2026-04-20 21:04 40.10025 -107.09037 31766 ft 207 kts 268°
2026-04-20 21:04 40.10280 -107.10879 31886 ft 204 kts 268°
2026-04-20 21:04 40.10531 -107.12689 32006 ft 201 kts 267°
2026-04-20 21:05 40.10778 -107.14480 32126 ft 198 kts 267°
2026-04-20 21:05 40.11022 -107.16245 32247 ft 195 kts 267°
2026-04-20 21:05 40.11260 -107.17970 32366 ft 192 kts 266°
2026-04-20 21:05 40.11494 -107.19669 32485 ft 188 kts 266°
2026-04-20 21:06 40.11722 -107.21328 32602 ft 184 kts 266°
2026-04-20 21:06 40.11947 -107.22957 32718 ft 180 kts 265°
2026-04-20 21:06 40.12163 -107.24537 32798 ft 178 kts 265°
2026-04-20 21:06 40.12378 -107.26122 32853 ft 177 kts 265°
2026-04-20 21:07 40.12591 -107.27701 32902 ft 176 kts 265°
2026-04-20 21:07 40.12804 -107.29272 32950 ft 175 kts 265°
2026-04-20 21:07 40.13016 -107.30830 32998 ft 174 kts 265°
2026-04-20 21:07 40.13227 -107.32387 33031 ft 174 kts 265°
2026-04-20 21:08 40.13437 -107.33943 33058 ft 175 kts 265°
2026-04-20 21:08 40.13649 -107.35511 33085 ft 176 kts 265°
2026-04-20 21:08 40.13862 -107.37089 33114 ft 177 kts 265°
2026-04-20 21:08 40.14077 -107.38679 33141 ft 178 kts 265°
2026-04-20 21:09 40.14294 -107.40285 33168 ft 180 kts 265°
2026-04-20 21:09 40.14512 -107.41897 33195 ft 181 kts 265°
2026-04-20 21:09 40.14729 -107.43503 33223 ft 182 kts 265°
2026-04-20 21:09 40.14953 -107.45161 33251 ft 184 kts 265°
2026-04-20 21:10 40.15173 -107.46796 33279 ft 185 kts 265°
2026-04-20 21:10 40.15398 -107.48458 33306 ft 187 kts 266°
2026-04-20 21:10 40.15624 -107.50139 33334 ft 188 kts 266°
2026-04-20 21:10 40.15852 -107.51829 33362 ft 190 kts 265°
2026-04-20 21:11 40.16081 -107.53533 33390 ft 191 kts 266°
2026-04-20 21:11 40.16267 -107.54919 33412 ft 192 kts 266°
2026-04-20 21:11 40.16492 -107.56599 33439 ft 194 kts 266°
2026-04-20 21:11 40.16732 -107.58388 33467 ft 195 kts 266°
2026-04-20 21:12 40.16964 -107.60124 33494 ft 197 kts 266°
2026-04-20 21:12 40.17201 -107.61895 33521 ft 198 kts 266°
2026-04-20 21:12 40.17439 -107.63678 33548 ft 200 kts 266°
2026-04-20 21:12 40.17680 -107.65478 33576 ft 202 kts 266°
2026-04-20 21:13 40.17922 -107.67283 33690 ft 198 kts 266°
2026-04-20 21:13 40.18162 -107.69048 33809 ft 195 kts 266°
2026-04-20 21:13 40.18397 -107.70786 33901 ft 193 kts 265°
2026-04-20 21:13 40.18627 -107.72520 33940 ft 194 kts 265°
2026-04-20 21:14 40.18856 -107.74266 33947 ft 196 kts 265°
2026-04-20 21:14 40.19086 -107.76032 33948 ft 198 kts 266°
2026-04-20 21:14 40.19320 -107.77821 33948 ft 201 kts 266°
2026-04-20 21:14 40.19555 -107.79613 33948 ft 203 kts 266°
2026-04-20 21:15 40.19795 -107.81444 33948 ft 206 kts 266°
2026-04-20 21:15 40.20040 -107.83304 33948 ft 208 kts 266°
2026-04-20 21:15 40.20286 -107.85183 33948 ft 211 kts 266°
2026-04-20 21:15 40.20536 -107.87085 33948 ft 214 kts 266°
2026-04-20 21:16 40.20788 -107.89012 33948 ft 216 kts 266°
2026-04-20 21:16 40.21044 -107.90964 33947 ft 219 kts 266°
2026-04-20 21:16 40.21303 -107.92944 33946 ft 221 kts 267°
2026-04-20 21:16 40.21564 -107.94942 33945 ft 224 kts 267°
2026-04-20 21:17 40.21828 -107.96962 33945 ft 226 kts 267°
2026-04-20 21:17 40.22094 -107.99002 33944 ft 229 kts 267°
2026-04-20 21:17 40.22362 -108.01062 33943 ft 231 kts 267°
2026-04-20 21:17 40.22634 -108.03151 33942 ft 234 kts 267°
2026-04-20 21:18 40.22907 -108.05261 33942 ft 236 kts 268°
2026-04-20 21:18 40.23184 -108.07394 33941 ft 239 kts 268°
2026-04-20 21:18 40.23462 -108.09548 33940 ft 242 kts 268°
2026-04-20 21:18 40.23745 -108.11736 33938 ft 245 kts 268°
2026-04-20 21:19 40.24026 -108.13920 33937 ft 248 kts 268°
2026-04-20 21:19 40.24313 -108.16155 33936 ft 251 kts 268°
2026-04-20 21:19 40.24604 -108.18417 33934 ft 254 kts 268°
2026-04-20 21:20 40.25196 -108.23038 33931 ft 260 kts 268°
2026-04-20 21:20 40.25496 -108.25388 33930 ft 264 kts 268°
2026-04-20 21:20 40.25800 -108.27773 33928 ft 267 kts 268°
2026-04-20 21:20 40.26110 -108.30201 33926 ft 271 kts 268°
2026-04-20 21:21 40.26420 -108.32648 33924 ft 275 kts 269°
2026-04-20 21:21 40.26737 -108.35142 33922 ft 279 kts 269°
2026-04-20 21:21 40.27056 -108.37664 33921 ft 283 kts 269°
2026-04-20 21:21 40.27379 -108.40224 33919 ft 287 kts 269°
2026-04-20 21:22 40.27707 -108.42825 33917 ft 292 kts 269°
2026-04-20 21:22 40.28039 -108.45462 33915 ft 296 kts 269°
2026-04-20 21:22 40.28377 -108.48152 33914 ft 301 kts 269°
2026-04-20 21:23 40.29064 -108.53636 33911 ft 309 kts 269°
2026-04-20 21:23 40.29769 -108.59258 33907 ft 315 kts 269°
2026-04-20 21:24 40.30483 -108.64958 33905 ft 319 kts 270°
2026-04-20 21:24 40.31201 -108.70707 33903 ft 321 kts 270°
2026-04-20 21:25 40.31919 -108.76503 33902 ft 323 kts 269°
2026-04-20 21:25 40.32638 -108.82319 33897 ft 324 kts 269°
2026-04-20 21:26 40.33352 -108.88118 33896 ft 324 kts 269°
2026-04-20 21:26 40.34067 -108.93953 33894 ft 324 kts 269°
2026-04-20 21:27 40.34778 -108.99797 33892 ft 324 kts 269°
2026-04-20 21:27 40.35487 -109.05644 33890 ft 324 kts 269°
2026-04-20 21:28 40.36187 -109.11456 33887 ft 324 kts 269°
2026-04-20 21:28 40.36888 -109.17303 33884 ft 324 kts 269°
2026-04-20 21:29 40.37586 -109.23144 33883 ft 324 kts 269°
2026-04-20 21:29 40.38281 -109.28992 33881 ft 324 kts 269°
2026-04-20 21:30 40.38972 -109.34836 33880 ft 324 kts 269°
2026-04-20 21:30 40.39658 -109.40666 33879 ft 323 kts 269°
2026-04-20 21:31 40.40342 -109.46495 33879 ft 323 kts 269°
2026-04-20 21:31 40.41017 -109.52281 33879 ft 323 kts 269°
2026-04-20 21:32 40.41693 -109.58101 33879 ft 322 kts 269°
2026-04-20 21:32 40.42365 -109.63921 33879 ft 322 kts 269°
2026-04-20 21:33 40.43033 -109.69723 33878 ft 322 kts 269°
2026-04-20 21:33 40.43698 -109.75532 33878 ft 321 kts 269°
2026-04-20 21:34 40.44360 -109.81336 33877 ft 321 kts 268°
2026-04-20 21:34 40.45019 -109.87138 33875 ft 321 kts 268°
2026-04-20 21:35 40.45674 -109.92937 33874 ft 321 kts 268°
2026-04-20 21:35 40.46323 -109.98702 33873 ft 321 kts 268°
2026-04-20 21:36 40.46971 -110.04492 33872 ft 321 kts 268°
2026-04-20 21:36 40.47617 -110.10290 33874 ft 321 kts 268°
2026-04-20 21:37 40.48259 -110.16081 33876 ft 320 kts 268°
2026-04-20 21:37 40.48897 -110.21878 33877 ft 320 kts 268°
2026-04-20 21:38 40.49535 -110.27685 33879 ft 320 kts 268°
2026-04-20 21:38 40.50169 -110.33476 33880 ft 320 kts 268°
2026-04-20 21:39 40.50800 -110.39270 33882 ft 320 kts 268°
2026-04-20 21:39 40.51425 -110.45035 33889 ft 320 kts 268°
2026-04-20 21:40 40.52049 -110.50833 33887 ft 321 kts 268°
2026-04-20 21:40 40.52673 -110.56650 33882 ft 321 kts 268°
2026-04-20 21:41 40.53294 -110.62460 33880 ft 321 kts 268°
2026-04-20 21:41 40.53913 -110.68287 33878 ft 321 kts 268°
2026-04-20 21:42 40.54529 -110.74114 33875 ft 321 kts 268°
2026-04-20 21:42 40.55141 -110.79933 33873 ft 321 kts 268°
2026-04-20 21:43 40.55751 -110.85761 33870 ft 322 kts 268°
2026-04-20 21:43 40.56354 -110.91556 33866 ft 322 kts 268°
2026-04-20 21:44 40.56960 -110.97403 33863 ft 323 kts 268°
2026-04-20 21:44 40.57564 -111.03260 33859 ft 323 kts 268°
2026-04-20 21:45 40.58165 -111.09112 33845 ft 323 kts 268°
2026-04-20 21:45 40.58761 -111.14955 33842 ft 322 kts 268°
2026-04-20 21:46 40.59356 -111.20810 33840 ft 322 kts 268°
2026-04-20 21:46 40.59943 -111.26620 33839 ft 322 kts 268°
2026-04-20 21:47 40.60528 -111.32470 33838 ft 322 kts 268°
2026-04-20 21:47 40.61013 -111.37328 33837 ft 322 kts 268°
2026-04-20 21:48 40.61596 -111.43174 33837 ft 322 kts 268°
2026-04-20 21:48 40.62176 -111.49018 33834 ft 322 kts 268°
2026-04-20 21:49 40.62752 -111.54860 33831 ft 321 kts 268°
2026-04-20 21:49 40.63325 -111.60703 33820 ft 322 kts 268°
2026-04-20 21:50 40.63892 -111.66517 33811 ft 321 kts 267°
2026-04-20 21:50 40.64458 -111.72352 33803 ft 321 kts 267°
2026-04-20 21:51 40.65021 -111.78191 33796 ft 321 kts 267°
2026-04-20 21:51 40.65580 -111.84023 33792 ft 321 kts 267°
2026-04-20 21:52 40.66136 -111.89853 33788 ft 321 kts 267°
2026-04-20 21:52 40.66689 -111.95679 33788 ft 320 kts 267°
2026-04-20 21:53 40.67238 -112.01511 33787 ft 320 kts 268°
2026-04-20 21:53 40.67781 -112.07306 33786 ft 321 kts 268°
2026-04-20 21:54 40.68325 -112.13143 33784 ft 321 kts 268°
2026-04-20 21:54 40.68867 -112.18985 33783 ft 321 kts 268°
2026-04-20 21:55 40.69407 -112.24830 33781 ft 321 kts 268°
2026-04-20 21:55 40.69943 -112.30676 33780 ft 321 kts 268°
2026-04-20 21:56 40.70476 -112.36526 33779 ft 322 kts 268°
2026-04-20 21:56 40.71004 -112.42351 33779 ft 322 kts 268°
2026-04-20 21:57 40.71520 -112.48212 33779 ft 321 kts 266°
2026-04-20 21:57 40.71809 -112.54066 33778 ft 319 kts 264°
2026-04-20 21:58 40.71957 -112.59907 33777 ft 319 kts 263°
2026-04-20 21:58 40.72052 -112.65748 33776 ft 319 kts 263°
2026-04-20 21:59 40.72125 -112.71600 33775 ft 319 kts 262°
2026-04-20 21:59 40.72185 -112.77454 33774 ft 319 kts 262°
2026-04-20 22:00 40.72236 -112.83313 33772 ft 319 kts 262°
2026-04-20 22:00 40.72282 -112.89171 33772 ft 320 kts 262°
2026-04-20 22:01 40.72327 -112.95037 33773 ft 320 kts 262°
2026-04-20 22:01 40.72368 -113.00883 33773 ft 320 kts 262°
2026-04-20 22:02 40.72406 -113.06759 33773 ft 321 kts 262°
2026-04-20 22:02 40.72440 -113.12637 33772 ft 321 kts 262°
2026-04-20 22:03 40.72471 -113.18486 33773 ft 321 kts 262°
2026-04-20 22:03 40.72499 -113.24406 33775 ft 321 kts 262°
2026-04-20 22:04 40.72523 -113.30261 33778 ft 321 kts 263°
2026-04-20 22:04 40.72545 -113.36156 33782 ft 321 kts 262°
2026-04-20 22:05 40.72563 -113.42043 33786 ft 321 kts 262°
2026-04-20 22:05 40.72576 -113.47923 33791 ft 321 kts 262°
2026-04-20 22:06 40.72581 -113.50131 33793 ft 321 kts 262°
2026-04-20 22:06 40.72594 -113.56014 33799 ft 321 kts 262°
2026-04-20 22:07 40.72601 -113.60404 33804 ft 321 kts 262°
2026-04-20 22:07 40.72608 -113.66024 33809 ft 321 kts 262°
2026-04-20 22:08 40.72609 -113.67431 33811 ft 321 kts 262°
2026-04-20 22:08 40.72706 -113.73332 33817 ft 323 kts 265°
2026-04-20 22:09 40.72921 -113.77217 33819 ft 324 kts 266°
2026-04-20 22:09 40.73341 -113.83147 33824 ft 325 kts 268°
2026-04-20 22:10 40.73805 -113.89084 33826 ft 325 kts 268°
2026-04-20 22:10 40.74285 -113.95019 33828 ft 326 kts 268°
2026-04-20 22:11 40.74771 -114.00957 33829 ft 326 kts 268°
2026-04-20 22:11 40.75260 -114.06907 33829 ft 327 kts 268°
2026-04-20 22:12 40.75670 -114.11897 33829 ft 327 kts 268°
2026-04-20 22:12 40.76159 -114.17875 33829 ft 328 kts 268°
2026-04-20 22:13 40.76648 -114.23862 33829 ft 328 kts 268°
2026-04-20 22:13 40.77135 -114.29852 33830 ft 329 kts 268°
2026-04-20 22:14 40.77619 -114.35851 33830 ft 329 kts 268°
2026-04-20 22:14 40.78102 -114.41860 33832 ft 329 kts 268°
2026-04-20 22:15 40.78582 -114.47875 33834 ft 329 kts 268°
2026-04-20 22:15 40.79058 -114.53922 33671 ft 334 kts 268°
2026-04-20 22:15 40.79297 -114.56987 33550 ft 337 kts 268°
2026-04-20 22:16 40.79537 -114.60076 33426 ft 340 kts 268°
2026-04-20 22:16 40.79780 -114.63201 33302 ft 343 kts 268°
2026-04-20 22:16 40.80020 -114.66302 33180 ft 345 kts 268°
2026-04-20 22:16 40.80266 -114.69468 33056 ft 347 kts 268°
2026-04-20 22:17 40.80513 -114.72658 32932 ft 349 kts 268°
2026-04-20 22:17 40.80760 -114.75856 32807 ft 351 kts 268°
2026-04-20 22:17 40.81008 -114.79073 32683 ft 353 kts 268°
2026-04-20 22:17 40.81256 -114.82301 32558 ft 354 kts 268°
2026-04-20 22:18 40.81504 -114.85545 32434 ft 356 kts 268°
2026-04-20 22:18 40.81752 -114.88801 32309 ft 357 kts 268°
2026-04-20 22:18 40.82000 -114.92065 32185 ft 358 kts 268°
2026-04-20 22:18 40.82245 -114.95295 32062 ft 359 kts 268°
2026-04-20 22:19 40.82492 -114.98573 31948 ft 359 kts 268°
2026-04-20 22:19 40.82986 -115.05121 31883 ft 356 kts 268°
2026-04-20 22:20 40.83472 -115.11586 31890 ft 352 kts 268°
2026-04-20 22:20 40.83947 -115.17992 31891 ft 349 kts 268°
2026-04-20 22:21 40.84414 -115.24352 31896 ft 347 kts 268°
2026-04-20 22:21 40.84872 -115.30674 31901 ft 345 kts 268°
2026-04-20 22:22 40.85325 -115.36981 31905 ft 344 kts 268°
2026-04-20 22:22 40.85772 -115.43265 31908 ft 343 kts 268°
2026-04-20 22:23 40.86215 -115.49531 31911 ft 343 kts 268°
2026-04-20 22:23 40.86655 -115.55799 31914 ft 343 kts 268°
2026-04-20 22:24 40.87088 -115.62033 31916 ft 343 kts 268°
2026-04-20 22:24 40.87521 -115.68303 31918 ft 343 kts 268°
2026-04-20 22:25 40.87952 -115.74580 31918 ft 343 kts 268°
2026-04-20 22:25 40.88378 -115.80847 31919 ft 343 kts 268°
2026-04-20 22:26 40.88802 -115.87127 31919 ft 343 kts 268°
2026-04-20 22:26 40.89222 -115.93397 31918 ft 343 kts 267°
2026-04-20 22:27 40.89843 -116.02816 31916 ft 343 kts 268°
2026-04-20 22:27 40.90253 -116.09085 31915 ft 345 kts 268°
2026-04-20 22:28 40.90664 -116.15431 31914 ft 351 kts 268°
2026-04-20 22:28 40.91078 -116.21956 31914 ft 361 kts 268°
2026-04-20 22:29 40.91500 -116.28636 31912 ft 369 kts 268°
2026-04-20 22:29 40.91931 -116.35390 31908 ft 363 kts 268°
2026-04-20 22:30 40.92356 -116.41958 31906 ft 354 kts 268°
2026-04-20 22:30 40.92765 -116.48399 31905 ft 349 kts 268°
2026-04-20 22:31 40.93157 -116.54719 31905 ft 346 kts 268°
2026-04-20 22:31 40.93459 -116.59664 31905 ft 344 kts 268°
2026-04-20 22:32 40.93840 -116.65972 31905 ft 343 kts 268°
2026-04-20 22:32 40.94215 -116.72252 31905 ft 342 kts 268°
2026-04-20 22:33 40.94587 -116.78535 31905 ft 342 kts 268°
2026-04-20 22:33 40.94894 -116.83751 31905 ft 342 kts 268°
2026-04-20 22:34 40.95260 -116.90029 31903 ft 343 kts 268°
2026-04-20 22:34 40.95624 -116.96323 31901 ft 343 kts 268°
2026-04-20 22:35 40.95985 -117.02620 31901 ft 343 kts 268°
2026-04-20 22:35 40.96343 -117.08925 31900 ft 344 kts 268°
2026-04-20 22:36 40.96698 -117.15243 31900 ft 344 kts 268°
2026-04-20 22:36 40.97052 -117.21579 31899 ft 345 kts 268°
2026-04-20 22:37 40.97399 -117.27871 31899 ft 345 kts 268°
2026-04-20 22:37 40.97746 -117.34219 31898 ft 346 kts 268°
2026-04-20 22:38 40.98090 -117.40578 31898 ft 346 kts 268°
2026-04-20 22:38 40.98431 -117.46938 31898 ft 347 kts 268°
2026-04-20 22:39 40.98769 -117.53312 31898 ft 347 kts 268°
2026-04-20 22:39 40.99102 -117.59662 31898 ft 347 kts 268°
2026-04-20 22:40 40.99428 -117.66043 31898 ft 348 kts 268°
2026-04-20 22:40 40.99755 -117.72432 31898 ft 348 kts 268°
2026-04-20 22:41 41.00082 -117.78831 31899 ft 348 kts 268°
2026-04-20 22:41 41.00405 -117.85227 31898 ft 349 kts 268°
2026-04-20 22:42 41.00724 -117.91640 31898 ft 349 kts 268°
2026-04-20 22:42 41.01040 -117.98051 31897 ft 349 kts 268°
2026-04-20 22:43 41.01351 -118.04479 31896 ft 350 kts 269°
2026-04-20 22:43 41.01660 -118.10930 31895 ft 352 kts 269°
2026-04-20 22:44 41.01968 -118.17409 31894 ft 353 kts 269°
2026-04-20 22:44 41.02272 -118.23903 31893 ft 353 kts 269°
2026-04-20 22:45 41.02574 -118.30403 31891 ft 354 kts 269°
2026-04-20 22:45 41.02869 -118.36861 31889 ft 354 kts 269°
2026-04-20 22:46 41.03164 -118.43377 31887 ft 354 kts 269°
2026-04-20 22:46 41.03455 -118.49897 31885 ft 355 kts 269°
2026-04-20 22:47 41.03742 -118.56415 31884 ft 355 kts 269°
2026-04-20 22:47 41.04026 -118.62946 31883 ft 355 kts 269°
2026-04-20 22:48 41.04305 -118.69476 31881 ft 355 kts 269°
2026-04-20 22:48 41.04581 -118.76008 31884 ft 355 kts 269°
2026-04-20 22:49 41.04854 -118.82547 31877 ft 356 kts 269°
2026-04-20 22:49 41.05122 -118.89055 31870 ft 356 kts 269°
2026-04-20 22:50 41.05389 -118.95622 31870 ft 356 kts 269°
2026-04-20 22:50 41.05652 -119.02183 31870 ft 356 kts 269°
2026-04-20 22:51 41.05911 -119.08745 31870 ft 357 kts 269°
2026-04-20 22:51 41.06167 -119.15309 31870 ft 357 kts 269°
2026-04-20 22:52 41.06418 -119.21884 31865 ft 357 kts 269°
2026-04-20 22:52 41.06665 -119.28425 31864 ft 358 kts 269°
2026-04-20 22:53 41.06912 -119.35054 31864 ft 358 kts 269°
2026-04-20 22:53 41.07152 -119.41609 31864 ft 358 kts 269°
2026-04-20 22:54 41.07389 -119.48208 31864 ft 359 kts 269°
2026-04-20 22:54 41.07623 -119.54815 31863 ft 359 kts 269°
2026-04-20 22:55 41.07854 -119.61437 31863 ft 359 kts 269°
2026-04-20 22:55 41.08081 -119.68056 31863 ft 360 kts 269°
2026-04-20 22:56 41.08304 -119.74683 31863 ft 360 kts 269°
2026-04-20 22:56 41.08524 -119.81325 31863 ft 361 kts 269°
2026-04-20 22:57 41.09255 -119.87919 31865 ft 367 kts 285°
2026-04-20 22:57 41.11383 -119.94064 31868 ft 371 kts 295°
2026-04-20 22:58 41.13997 -119.99995 31865 ft 373 kts 298°
2026-04-20 22:58 41.16748 -120.05842 31863 ft 374 kts 300°
2026-04-20 22:59 41.19539 -120.11672 31861 ft 374 kts 301°
2026-04-20 22:59 41.22343 -120.17508 31859 ft 375 kts 301°
2026-04-20 23:00 41.25151 -120.23356 31857 ft 376 kts 301°
2026-04-20 23:00 41.27962 -120.29226 31855 ft 376 kts 301°
2026-04-20 23:01 41.30758 -120.35074 31853 ft 377 kts 301°
2026-04-20 23:01 41.33566 -120.40962 31852 ft 377 kts 301°
2026-04-20 23:02 41.36380 -120.46873 31851 ft 378 kts 301°
2026-04-20 23:02 41.39192 -120.52793 31850 ft 378 kts 301°
2026-04-20 23:03 41.41995 -120.58707 31849 ft 378 kts 301°
2026-04-20 23:03 41.44796 -120.64627 31849 ft 378 kts 301°
2026-04-20 23:04 41.47577 -120.70518 31849 ft 377 kts 301°
2026-04-20 23:04 41.50371 -120.76447 31849 ft 377 kts 301°
2026-04-20 23:05 41.53158 -120.82373 31849 ft 377 kts 301°
2026-04-20 23:05 41.55939 -120.88298 31848 ft 377 kts 301°
2026-04-20 23:06 41.58717 -120.94229 31848 ft 376 kts 301°
2026-04-20 23:06 41.61487 -121.00154 31847 ft 376 kts 301°
2026-04-20 23:07 41.64248 -121.06070 31844 ft 368 kts 301°
2026-04-20 23:07 41.65568 -121.08900 31692 ft 352 kts 301°
2026-04-20 23:07 41.66840 -121.11634 31305 ft 341 kts 301°
2026-04-20 23:08 41.68078 -121.14298 30885 ft 334 kts 301°
2026-04-20 23:08 41.69296 -121.16921 30459 ft 329 kts 301°
2026-04-20 23:08 41.70499 -121.19516 30032 ft 326 kts 301°
2026-04-20 23:08 41.71692 -121.22088 29605 ft 324 kts 301°
2026-04-20 23:09 41.72875 -121.24644 29180 ft 322 kts 301°
2026-04-20 23:09 41.74053 -121.27188 28755 ft 320 kts 301°
2026-04-20 23:09 41.75205 -121.29680 28336 ft 319 kts 301°
2026-04-20 23:09 41.76384 -121.32229 27906 ft 317 kts 301°
2026-04-20 23:10 41.77526 -121.34703 27487 ft 316 kts 301°
2026-04-20 23:10 41.78679 -121.37202 27062 ft 314 kts 301°
2026-04-20 23:10 41.79825 -121.39688 26638 ft 313 kts 301°
2026-04-20 23:10 41.80966 -121.42163 26213 ft 311 kts 301°
2026-04-20 23:11 41.82102 -121.44631 25788 ft 310 kts 301°
2026-04-20 23:11 41.83231 -121.47087 25364 ft 309 kts 301°
2026-04-20 23:11 41.84355 -121.49532 24939 ft 307 kts 301°
2026-04-20 23:11 41.85472 -121.51964 24515 ft 306 kts 301°
2026-04-20 23:12 41.86583 -121.54386 24092 ft 304 kts 301°
2026-04-20 23:12 41.87692 -121.56804 23742 ft 307 kts 301°
2026-04-20 23:12 41.88835 -121.59301 23436 ft 319 kts 301°
2026-04-20 23:12 41.90011 -121.61874 23139 ft 328 kts 301°
2026-04-20 23:13 41.91216 -121.64510 22842 ft 333 kts 301°
2026-04-20 23:13 41.92433 -121.67172 22543 ft 335 kts 301°
2026-04-20 23:13 41.93653 -121.69844 22244 ft 335 kts 301°
2026-04-20 23:13 41.94862 -121.72492 21944 ft 332 kts 301°
2026-04-20 23:14 41.96068 -121.75136 21643 ft 331 kts 301°
2026-04-20 23:14 41.97266 -121.77766 21342 ft 328 kts 301°
2026-04-20 23:14 41.98453 -121.80374 21042 ft 328 kts 301°
2026-04-20 23:14 41.99643 -121.82992 20742 ft 329 kts 301°
2026-04-20 23:15 42.00839 -121.85623 20416 ft 331 kts 301°
2026-04-20 23:15 42.02039 -121.88268 20069 ft 333 kts 301°
2026-04-20 23:15 42.03250 -121.90937 19720 ft 335 kts 301°
2026-04-20 23:15 42.04466 -121.93622 19370 ft 336 kts 301°
2026-04-20 23:16 42.05683 -121.96311 19021 ft 337 kts 301°
2026-04-20 23:16 42.06877 -121.98952 18674 ft 330 kts 301°
2026-04-20 23:16 42.08058 -122.01566 18322 ft 324 kts 301°
2026-04-20 23:16 42.09220 -122.04141 17971 ft 320 kts 301°
2026-04-20 23:17 42.10368 -122.06687 17620 ft 317 kts 301°
2026-04-20 23:17 42.11506 -122.09214 17269 ft 315 kts 301°
2026-04-20 23:17 42.12638 -122.11729 16919 ft 313 kts 301°
2026-04-20 23:17 42.13767 -122.14239 16568 ft 312 kts 301°
2026-04-20 23:18 42.14890 -122.16739 16218 ft 311 kts 301°
2026-04-20 23:18 42.16008 -122.19228 15869 ft 311 kts 301°
2026-04-20 23:18 42.17129 -122.21725 15517 ft 310 kts 301°
2026-04-20 23:18 42.18231 -122.24183 15171 ft 309 kts 301°
2026-04-20 23:19 42.19448 -122.26569 14823 ft 309 kts 308°
2026-04-20 23:19 42.20468 -122.29097 14468 ft 309 kts 286°
2026-04-20 23:19 42.20766 -122.31960 14132 ft 308 kts 277°
2026-04-20 23:19 42.21462 -122.34660 13779 ft 307 kts 303°
2026-04-20 23:20 42.22960 -122.36681 13444 ft 306 kts 322°
2026-04-20 23:20 42.24677 -122.38374 13098 ft 306 kts 325°
2026-04-20 23:20 42.26435 -122.40002 12747 ft 306 kts 326°
2026-04-20 23:20 42.28203 -122.41599 12397 ft 306 kts 326°
2026-04-20 23:21 42.29973 -122.43183 12155 ft 302 kts 327°
2026-04-20 23:21 42.31129 -122.44214 12075 ft 299 kts 327°
2026-04-20 23:21 42.32851 -122.45747 12020 ft 293 kts 327°
2026-04-20 23:21 42.34546 -122.47255 12010 ft 289 kts 327°
2026-04-20 23:22 42.36217 -122.48741 12012 ft 286 kts 327°
2026-04-20 23:22 42.37876 -122.50220 12004 ft 284 kts 327°
2026-04-20 23:22 42.40015 -122.52129 11996 ft 272 kts 327°
2026-04-20 23:22 42.41079 -122.53072 11994 ft 268 kts 327°
2026-04-20 23:23 42.42613 -122.54448 11998 ft 261 kts 325°
2026-04-20 23:23 42.44054 -122.55894 12001 ft 255 kts 322°
2026-04-20 23:23 42.45377 -122.57424 11999 ft 251 kts 317°
2026-04-20 23:23 42.46623 -122.59054 11999 ft 248 kts 315°
2026-04-20 23:24 42.47829 -122.60706 11997 ft 245 kts 313°
2026-04-20 23:24 42.48954 -122.62425 11997 ft 243 kts 310°
2026-04-20 23:24 42.49973 -122.64242 11997 ft 241 kts 306°
2026-04-20 23:24 42.50918 -122.66116 11997 ft 240 kts 303°
2026-04-20 23:25 42.51813 -122.68022 11998 ft 241 kts 302°
2026-04-20 23:25 42.52704 -122.69976 12000 ft 246 kts 302°
2026-04-20 23:25 42.53899 -122.72617 12000 ft 251 kts 302°
2026-04-20 23:25 42.54517 -122.73985 12000 ft 253 kts 302°
2026-04-20 23:26 42.55344 -122.76104 12000 ft 255 kts 295°
2026-04-20 23:26 42.56022 -122.78302 12000 ft 257 kts 292°
2026-04-20 23:26 42.56667 -122.80564 11940 ft 257 kts 291°
2026-04-20 23:26 42.57304 -122.82855 11695 ft 260 kts 291°
2026-04-20 23:27 42.57932 -122.85131 11442 ft 251 kts 291°
2026-04-20 23:27 42.58546 -122.87344 11190 ft 250 kts 290°
2026-04-20 23:27 42.59163 -122.89545 10939 ft 249 kts 291°
2026-04-20 23:27 42.59781 -122.91741 10690 ft 249 kts 291°
2026-04-20 23:28 42.60391 -122.93907 10436 ft 237 kts 291°
2026-04-20 23:28 42.60959 -122.95921 10177 ft 221 kts 290°
2026-04-20 23:28 42.61180 -122.97899 9911 ft 209 kts 259°
2026-04-20 23:28 42.60470 -122.99517 9656 ft 199 kts 217°
2026-04-20 23:29 42.59214 -123.00021 9405 ft 192 kts 174°
2026-04-20 23:29 42.58041 -122.99264 9166 ft 188 kts 140°
2026-04-20 23:29 42.57125 -122.98026 8927 ft 183 kts 134°
2026-04-20 23:29 42.56215 -122.96844 8681 ft 181 kts 141°
2026-04-20 23:30 42.55162 -122.95864 8436 ft 185 kts 152°
2026-04-20 23:30 42.53982 -122.95169 8189 ft 186 kts 162°
2026-04-20 23:30 42.52730 -122.94718 7942 ft 187 kts 168°
2026-04-20 23:30 42.51450 -122.94377 7693 ft 188 kts 169°
2026-04-20 23:31 42.50172 -122.93999 7443 ft 188 kts 166°
2026-04-20 23:31 42.48919 -122.93497 7193 ft 182 kts 161°
2026-04-20 23:31 42.47797 -122.92904 6892 ft 167 kts 157°
2026-04-20 23:31 42.46733 -122.92284 6417 ft 164 kts 158°
2026-04-20 23:32 42.45689 -122.91719 5935 ft 160 kts 160°
2026-04-20 23:32 42.44645 -122.91201 5395 ft 160 kts 161°
2026-04-20 23:32 42.43588 -122.90703 4843 ft 161 kts 162°
2026-04-20 23:32 42.42537 -122.90193 4287 ft 161 kts 159°
2026-04-20 23:33 42.41500 -122.89601 3628 ft 165 kts 157°
2026-04-20 23:33 42.40451 -122.89029 2835 ft 165 kts 159°
2026-04-20 23:33 42.39399 -122.88407 1918 ft 166 kts 156°
2026-04-20 23:33 42.38372 -122.87786 1349 ft 150 kts 159°
2026-04-20 23:34 42.37717 -122.87449 1339 ft 34 kts 159°
2026-04-20 23:34 42.37614 -122.87502 1339 ft 18 kts 253°